This demonstration page uses our WeatherBlox Daily Observations layout. Learn more.

Left ArrowRight Arrow

34.02893, -84.19858

Hourly Observations for May 9, 2022

Temp ( °F °C ) Dew Point ( °F °C ) Humidity (%) Winds ( mph kmh ) Pressure ( in mb ) Visibility ( mi km ) Precip ( " mm )
12:53 am 00:53 Mostly Cloudy 58 14.4 52 11.1 81 81 E 3 6 30.03 1017 10 16 0.00 0.00
1:53 am 01:53 Cloudy 59 15 51 10.6 75 75 VRB 3 6 30.03 1017 10 16 0.00 0.00
2:53 am 02:53 Cloudy 59 15 49 9.4 69 69 VRB 6 9 30.02 1017 10 16 0.00 0.00
3:53 am 03:53 Cloudy 57 13.9 49 9.4 74 74 ESE 5 7 30.03 1017 10 16 0.00 0.00
4:53 am 04:53 Cloudy 56 13.3 47 8.3 72 72 undefined N/A 30.05 1018 10 16 0.00 0.00
5:53 am 05:53 Clear 54 12.2 45 7.2 72 72 VRB 3 6 30.08 1019 10 16 0.00 0.00
6:53 am 06:53 Sunny 52 11.1 44 6.7 75 75 Calm 30.10 1019 10 16 0.00 0.00
7:53 am 07:53 Sunny 53 11.7 45 7.2 74 74 VRB 5 7 30.14 1021 10 16 0.00 0.00
8:53 am 08:53 Mostly Sunny 55 12.8 45 7.2 69 69 VRB 6 9 30.16 1021 10 16 0.00 0.00
9:53 am 09:53 Sunny 58 14.4 47 8.3 67 67 VRB 7 11 30.17 1022 10 16 0.00 0.00
10:53 am 10:53 Mostly Sunny 61 16.1 47 8.3 60 60 undefined N/A 30.18 1022 10 16 0.00 0.00
10:58 am 10:58 Mostly Sunny 61 16.1 47 8.3 60 60 NNE 12 19 30.19 1022 10 16 0.00 0.00
11:53 am 11:53 Sunny 64 17.8 49 9.4 58 58 NNE 12 19 30.17 1022 10 16 0.00 0.00
12:53 pm 12:53 Sunny 65 18.3 49 9.4 56 56 VRB 6 9 30.16 1021 10 16 0.00 0.00
1:53 pm 13:53 Sunny 67 19.4 50 10 55 55 VRB 5 7 30.14 1021 10 16 0.00 0.00
2:53 pm 14:53 Sunny 69 20.6 51 10.6 53 53 VRB 5 7 30.13 1020 10 16 0.00 0.00
3:53 pm 15:53 Sunny 69 20.6 51 10.6 53 53 VRB 3 6 30.11 1020 10 16 0.00 0.00
4:53 pm 16:53 Sunny 72 22.2 51 10.6 48 48 VRB 3 6 30.10 1019 10 16 0.00 0.00
5:53 pm 17:53 Sunny 71 21.7 52 11.1 51 51 SSE 3 6 30.11 1020 10 16 0.00 0.00
6:53 pm 18:53 Sunny 71 21.7 52 11.1 51 51 SE 5 7 30.11 1020 10 16 0.00 0.00
7:53 pm 19:53 Sunny 69 20.6 52 11.1 55 55 VRB 3 6 30.11 1020 10 16 0.00 0.00
8:53 pm 20:53 Clear 62 16.7 53 11.7 73 73 ESE 3 6 30.13 1020 10 16 0.00 0.00
9:53 pm 21:53 Clear 60 15.6 53 11.7 78 78 Calm 30.15 1021 10 16 0.00 0.00
10:53 pm 22:53 Clear 56 13.3 52 11.1 87 87 Calm 30.17 1022 10 16 0.00 0.00
11:53 pm 23:53 Clear 55 12.8 52 11.1 90 90 Calm 30.17 1022 10 16 0.00 0.00

Powered by AerisWeather